TimeEDT,TemperatureF,Dew PointF,Humidity,Sea Level PressureIn,VisibilityMPH,Wind Direction,Wind SpeedMPH,Gust SpeedMPH,PrecipitationIn,Events,Conditions,WindDirDegrees,DateUTC
12:53 AM,73.0,70.0,90,30.09,10.0,East,4.6,-,N/A,,Partly Cloudy,100,2013-07-03 04:53:00
1:53 AM,71.1,70.0,96,30.10,10.0,SE,3.5,-,N/A,,Mostly Cloudy,130,2013-07-03 05:53:00
2:53 AM,72.0,70.0,93,30.10,10.0,ESE,4.6,-,N/A,,Overcast,120,2013-07-03 06:53:00
3:53 AM,73.0,70.0,90,30.11,10.0,ENE,4.6,-,N/A,,Overcast,70,2013-07-03 07:53:00
4:53 AM,72.0,69.1,91,30.11,10.0,East,5.8,-,N/A,,Mostly Cloudy,100,2013-07-03 08:53:00
5:53 AM,72.0,69.1,91,30.13,10.0,East,5.8,-,N/A,,Overcast,90,2013-07-03 09:53:00
6:53 AM,73.0,69.1,87,30.14,10.0,East,5.8,-,N/A,,Overcast,90,2013-07-03 10:53:00
7:53 AM,73.0,70.0,90,30.16,10.0,East,5.8,-,N/A,,Overcast,90,2013-07-03 11:53:00
8:53 AM,75.0,70.0,84,30.17,10.0,East,4.6,-,N/A,,Overcast,90,2013-07-03 12:53:00
9:53 AM,77.0,71.1,82,30.18,10.0,East,3.5,-,N/A,,Overcast,80,2013-07-03 13:53:00
10:53 AM,80.1,70.0,71,30.17,10.0,SW,4.6,-,N/A,,Mostly Cloudy,230,2013-07-03 14:53:00
11:53 AM,81.0,69.1,67,30.17,10.0,SSW,5.8,-,N/A,,Mostly Cloudy,210,2013-07-03 15:53:00
12:53 PM,82.9,70.0,65,30.16,10.0,SSW,4.6,-,N/A,,Partly Cloudy,210,2013-07-03 16:53:00
1:53 PM,84.9,70.0,61,30.15,10.0,Variable,5.8,-,N/A,,Partly Cloudy,0,2013-07-03 17:53:00
2:53 PM,86.0,69.1,57,30.13,10.0,Calm,Calm,-,N/A,,Partly Cloudy,0,2013-07-03 18:53:00
3:53 PM,87.1,69.1,55,30.12,10.0,SE,4.6,-,N/A,,Partly Cloudy,140,2013-07-03 19:53:00
4:53 PM,87.1,70.0,57,30.11,10.0,South,4.6,-,N/A,,Mostly Cloudy,180,2013-07-03 20:53:00
5:53 PM,87.1,69.1,55,30.10,10.0,Calm,Calm,-,N/A,,Partly Cloudy,0,2013-07-03 21:53:00
6:53 PM,84.9,69.1,59,30.11,10.0,WNW,4.6,-,N/A,,Partly Cloudy,290,2013-07-03 22:53:00
7:53 PM,80.1,73.0,79,30.12,10.0,Calm,Calm,-,N/A,,Scattered Clouds,0,2013-07-03 23:53:00
8:53 PM,77.0,73.0,88,30.14,10.0,Calm,Calm,-,0.03,,Scattered Clouds,0,2013-07-04 00:53:00
9:53 PM,75.0,73.0,94,30.15,10.0,Calm,Calm,-,N/A,,Clear,0,2013-07-04 01:53:00
10:53 PM,75.0,72.0,90,30.16,10.0,ESE,3.5,-,N/A,,Scattered Clouds,110,2013-07-04 02:53:00
11:53 PM,73.9,72.0,93,30.16,10.0,ESE,5.8,-,N/A,,Scattered Clouds,110,2013-07-04 03:53:00